Terminal Aerodrome Forecast
Issued by NWS Jacksonville, FL

Home | Current Version | Previous Version | Text Only | Print | Product List | Glossary On
Versions: 1 2 3 4 5 6 7 8 9 10 11 12 13 14 15 16
000
FTUS42 KJAX 232300 RRA
TAFGNV
TAF
KGNV 232346Z 2400/2424 20012KT P6SM SCT030 BKN060
     FM240600 19008KT 3SM BR BKN005
     FM241600 21012KT P6SM BKN015
     FM241800 21011KT P6SM BKN025=

USA.gov is the U.S. government's official web portal to all federal, state and local government web resources and services.